Weather History for KFYV - January, 2014

Change the Weather History Date:

Friday, January 31, 2014

  Actual Average Record
Temperature  
Mean Temperature 40 °F 37 °F  
Max Temperature 52 °F 48 °F 72 °F (1989)
Min Temperature 27 °F 25 °F 0 °F (1979)
Degree Days  
Heating Degree Days 25 28  
Month to date heating degree days 1029 916  
Since 1 July heating degree days 2856 2594  
Moisture  
Dew Point 37 °F    
Average Humidity 84    
Maximum Humidity 93    
Minimum Humidity 75    
Precipitation  
Precipitation 0.00 in 0.09 in 1.39 in (2002)
Month to date precipitation 1.64 2.84  
Year to date precipitation 1.64 2.84  
Sea Level Pressure  
Sea Level Pressure 29.87 in    
Wind  
Wind Speed 5 mph (SSE)    
Max Wind Speed 16 mph    
Max Gust Speed 20 mph    
Visibility 9 miles    
Events      
T = Trace of Precipitation, MM = Missing Value Source: NWS Daily Summary

Daily Weather History Graph

Daily Weather History Graph

Search for Another Location

Airport or City:

Trip Planner

Search our weather history database for the weather conditions in past years. The results will help you decide how hot, cold, wet, or windy it might be!

Date:

Astronomy

Jan. 31, 2014 Rise Set
Actual Time 7:18 AM CST 5:42 PM CST
Civil Twilight 6:51 AM CST 6:09 PM CST
Nautical Twilight 6:20 AM CST 6:40 PM CST
Astronomical Twilight 5:50 AM CST 7:10 PM CST
Moon 7:31 AM CST (1/31) 7:03 PM CST (1/31)
Length of Visible Light 11h 18m
Length of Day
10h 24m
New Moon, 1% of the Moon is Illuminated
Jan 31
New Moon
Feb 6
First Quarter
Feb 14
Full
Feb 22
Last Quarter
Mar 1
New

Hourly Weather History & Observations

Time (CST) Temp. Windchill Dew Point Humidity Pressure Visibility Wind Dir Wind Speed Gust Speed Precip Events Conditions
12:28 AM 28.4 °F - 23.0 °F 80% 29.91 in 10.0 mi Calm Calm - N/A   Mostly Cloudy
12:53 AM 28.0 °F - 23.0 °F 81% 29.93 in 10.0 mi Calm Calm - N/A   Overcast
1:30 AM 30.2 °F - 24.8 °F 80% 29.90 in 10.0 mi Calm Calm - N/A   Overcast
1:53 AM 30.9 °F - 25.0 °F 79% 29.93 in 10.0 mi Calm Calm - N/A   Overcast
2:06 AM 32.0 °F - 24.8 °F 75% 29.91 in 10.0 mi Calm Calm - N/A   Overcast
2:53 AM 32.0 °F - 26.1 °F 79% 29.93 in 10.0 mi Calm Calm - N/A   Overcast
3:53 AM 34.0 °F - 27.0 °F 75% 29.91 in 10.0 mi Calm Calm - N/A   Overcast
4:53 AM 33.1 °F - 27.0 °F 78% 29.88 in 10.0 mi Calm Calm - N/A   Overcast
5:53 AM 35.1 °F - 28.0 °F 76% 29.88 in 10.0 mi Calm Calm - N/A   Overcast
6:53 AM 37.0 °F - 30.0 °F 76% 29.91 in 10.0 mi Calm Calm - N/A   Overcast
7:53 AM 43.0 °F 39.5 °F 37.9 °F 82% 29.92 in 10.0 mi SSE 5.8 mph - N/A   Overcast
8:53 AM 44.1 °F 39.5 °F 39.0 °F 82% 29.92 in 7.0 mi SSE 8.1 mph - N/A   Overcast
9:53 AM 45.0 °F 40.1 °F 39.9 °F 82% 29.92 in 10.0 mi SSE 9.2 mph - N/A   Overcast
10:53 AM 45.0 °F 40.6 °F 39.9 °F 82% 29.93 in 10.0 mi South 8.1 mph - N/A   Overcast
11:53 AM 45.0 °F 39.7 °F 39.9 °F 82% 29.91 in 10.0 mi South 10.4 mph - N/A   Overcast
12:53 PM 45.0 °F 41.2 °F 39.9 °F 82% 29.89 in 7.0 mi South 6.9 mph - N/A   Overcast
1:53 PM 45.0 °F 41.2 °F 41.0 °F 86% 29.86 in 6.0 mi SSE 6.9 mph - N/A   Overcast
2:53 PM 45.0 °F 41.2 °F 41.0 °F 86% 29.86 in 8.0 mi SSE 6.9 mph - N/A   Overcast
3:53 PM 46.9 °F - 42.1 °F 83% 29.86 in 6.0 mi South 4.6 mph - N/A   Haze
4:53 PM 46.9 °F - 43.0 °F 86% 29.85 in 7.0 mi SSE 5.8 mph - N/A   Overcast
5:53 PM 46.9 °F - 43.0 °F 86% 29.85 in 8.0 mi South 8.1 mph - N/A   Overcast
6:03 PM 46.4 °F 43.5 °F 42.8 °F 87% 29.84 in 7.0 mi South 5.8 mph - N/A   Overcast
6:53 PM 46.9 °F - 44.1 °F 90% 29.85 in 7.0 mi SSE 5.8 mph - N/A   Overcast
7:53 PM 48.0 °F - 45.0 °F 89% 29.83 in 7.0 mi South 10.4 mph - N/A   Overcast
8:53 PM 48.0 °F - 45.0 °F 89% 29.83 in 7.0 mi ESE 5.8 mph - N/A   Overcast
9:53 PM 51.1 °F - 48.0 °F 89% 29.81 in 7.0 mi SE 5.8 mph - N/A   Overcast
10:53 PM 52.0 °F - 48.9 °F 89% 29.80 in 9.0 mi Calm Calm - N/A   Overcast
11:23 PM 51.8 °F - 48.2 °F 88% 29.80 in 9.0 mi South 5.8 mph - N/A   Overcast
11:45 PM 51.8 °F - 48.2 °F 88% 29.79 in 10.0 mi South 11.5 mph - N/A   Mostly Cloudy
11:53 PM 51.1 °F - 48.0 °F 89% 29.78 in 10.0 mi South 10.4 mph - N/A   Mostly Cloudy